Elmira, NY

12:59 PM EDT on May 26, 2017 (GMT -0400)
Elmira-Corning Regional

Weather History for KELM - May, 2013

Change the Weather History Date:

Sunday, May 19, 2013

  Actual Average Record
Temperature  
Mean Temperature 62 °F -  
Max Temperature 68 °F 68 °F 90 °F (1962)
Min Temperature 59 °F 44 °F 28 °F (2005)
Degree Days  
Heating Degree Days 2    
Growing Degree Days 12 (Base 50)    
Moisture  
Dew Point 54 °F    
Average Humidity 73    
Maximum Humidity 82    
Minimum Humidity 67    
Precipitation  
Precipitation 0.00 in - - ()
Sea Level Pressure  
Sea Level Pressure 30.15 in    
Wind  
Wind Speed 5 mph (South)    
Max Wind Speed 13 mph    
Max Gust Speed -    
Visibility 10 miles    
Events      
Averages and records for this station are not official NWS values.
T = Trace of Precipitation, MM = Missing Value Source: NWS Daily Summary

Daily Weather History Graph

Daily Weather History Graph

Search for Another Location

Airport or City:

Trip Planner

Search our weather history database for the weather conditions in past years. The results will help you decide how hot, cold, wet, or windy it might be!

Date:

Astronomy

May. 19, 2013 Rise Set
Actual Time 5:42 AM EDT 8:26 PM EDT
Civil Twilight 5:10 AM EDT 8:58 PM EDT
Nautical Twilight 4:29 AM EDT 9:39 PM EDT
Astronomical Twilight 3:42 AM EDT 10:26 PM EDT
Moon 2:21 PM EDT (5/19) 2:11 AM EDT (5/19)
Length of Visible Light 15h 48m
Length of Day
14h 43m
Waxing Gibbous, 65% of the Moon is Illuminated
May 19
Waxing Gibbous
May 25
Full
May 31
Last Quarter
Jun 8
New
Jun 16
First Quarter

Hourly Weather History & Observations

Time (EDT) Temp. Dew Point Humidity Pressure Visibility Wind Dir Wind Speed Gust Speed Precip Events Conditions
12:06 AM 59.0 °F 50.0 °F 72% 30.20 in 10.0 mi SSE 4.6 mph - N/A   Overcast
12:53 AM 60.1 °F 50.0 °F 69% 30.20 in 10.0 mi SSE 6.9 mph - N/A   Overcast
1:53 AM 60.1 °F 48.9 °F 67% 30.19 in 10.0 mi South 3.5 mph - N/A   Overcast
2:53 AM 59.0 °F 50.0 °F 72% 30.18 in 10.0 mi Calm Calm - 0.00 in   Overcast
3:53 AM 59.0 °F 50.0 °F 72% 30.16 in 10.0 mi Calm Calm - 0.00 in   Overcast
4:53 AM 59.0 °F 51.1 °F 75% 30.17 in 10.0 mi SW 4.6 mph - N/A   Overcast
6:48 AM 59.0 °F 51.8 °F 77% 30.18 in 10.0 mi Calm Calm - N/A   Overcast
6:53 AM 59.0 °F 52.0 °F 78% 30.18 in 10.0 mi SSE 5.8 mph - N/A   Overcast
8:53 AM 60.1 °F 54.0 °F 80% 30.20 in 10.0 mi SE 4.6 mph - N/A   Overcast
9:42 AM 60.8 °F 55.4 °F 82% 30.20 in 10.0 mi Calm Calm - N/A   Overcast
9:53 AM 62.1 °F 54.0 °F 75% 30.19 in 10.0 mi SE 3.5 mph - N/A   Overcast
10:53 AM 64.0 °F 55.0 °F 73% 30.18 in 10.0 mi South 6.9 mph - N/A   Overcast
11:53 AM 64.9 °F 55.0 °F 70% 30.17 in 10.0 mi South 11.5 mph - N/A   Overcast
12:53 PM 64.9 °F 55.0 °F 70% 30.15 in 10.0 mi South 10.4 mph - N/A   Overcast
1:53 PM 66.9 °F 57.0 °F 70% 30.13 in 10.0 mi South 9.2 mph - N/A   Overcast
3:53 PM 66.9 °F 55.9 °F 68% 30.11 in 10.0 mi SSE 12.7 mph - N/A   Overcast
4:53 PM 66.9 °F 55.9 °F 68% 30.10 in 10.0 mi South 8.1 mph - N/A   Overcast
5:53 PM 66.0 °F 55.9 °F 70% 30.12 in 10.0 mi South 10.4 mph - N/A   Overcast
6:53 PM 64.9 °F 55.9 °F 73% 30.09 in 10.0 mi South 10.4 mph - N/A   Overcast
7:53 PM 64.0 °F 55.9 °F 75% 30.09 in 10.0 mi SSW 6.9 mph - N/A   Overcast
8:53 PM 63.0 °F 55.9 °F 78% 30.10 in 10.0 mi South 5.8 mph - N/A   Overcast
9:53 PM 63.0 °F 55.9 °F 78% 30.11 in 10.0 mi South 4.6 mph - N/A   Overcast
10:53 PM 63.0 °F 55.9 °F 78% 30.11 in 10.0 mi South 3.5 mph - N/A   Overcast